Back to catalog

STARLINK-32483

AliveCommunicationsVLEO
NORAD 61856·PAYLOAD·🇺🇸 United States

Launched Nov 7, 2024 from Cape Canaveral Space Force Station

Loading…

Next Passes (next 24 hours)

TLE

FreshSource: CelesTrak SupGP

Epoch: Sep 14, 2026, 13:48 UTC

1 61856C 24202M   26257.57548611  .00017081  00000+0  61850-3 0  2571
2 61856  42.9999 251.1398 0001266 273.4120 195.4719 15.27578425    16

Track STARLINK-32483 in real time with AllMySat

Download on the App Store